Weather History for Jackson, KY

Change the Weather History Date:

Tuesday, May 27, 2014

  Actual Average Record
Temperature  
Mean Temperature 75 °F 67 °F  
Max Temperature 84 °F 77 °F 90 °F (2012)
Min Temperature 66 °F 57 °F 43 °F (1983)
Degree Days  
Heating Degree Days 0 2  
Month to date heating degree days 79 94  
Since 1 July heating degree days 4509 4215  
Cooling Degree Days 10 4  
Month to date cooling degree days 117 75  
Year to date cooling degree days 156 121  
Growing Degree Days 25 (Base 50)    
Moisture  
Dew Point 64 °F    
Average Humidity 70    
Maximum Humidity 78    
Minimum Humidity 62    
Precipitation  
Precipitation 0.12 in 0.18 in 1.54 in (2004)
Month to date precipitation 2.19 4.50  
Year to date precipitation 20.75 19.81  
Snow  
Snow 0.00 in 0.00 in - ()
Month to date snowfall 0.0 0.0  
Since 1 July snowfall 38.9 23.5  
Snow Depth 0.00 in    
Sea Level Pressure  
Sea Level Pressure 30.05 in    
Wind  
Wind Speed 1 mph (SW)    
Max Wind Speed 12 mph    
Max Gust Speed 22 mph    
Visibility 8 miles    
Events Rain , Thunderstorm    
T = Trace of Precipitation, MM = Missing Value Source: NWS Daily Summary

Daily Weather History Graph

Daily Weather History Graph

Search for Another Location

Airport:

Trip Planner

Search our weather history database for the weather conditions in past years. The results will help you decide how hot, cold, wet, or windy it might be!

Date:

Astronomy

May. 27, 2014 Rise Set
Actual Time 6:15 AM EDT 8:45 PM EDT
Civil Twilight 5:45 AM EDT 9:15 PM EDT
Nautical Twilight 5:08 AM EDT 9:53 PM EDT
Astronomical Twilight 4:26 AM EDT 10:35 PM EDT
Moon 5:35 AM EDT 7:48 PM EDT
Length of Visible Light 15h 30m
Length of Day
14h 29m
Waning Crescent, 1% of the Moon is Illuminated
May 27
Waning Crescent
May 28
New
Jun 5
First Quarter
Jun 13
Full
Jun 19
Last Quarter

Hourly Weather History & Observations

Time (EDT) Temp. Heat Index Dew Point Humidity Pressure Visibility Wind Dir Wind Speed Gust Speed Precip Events Conditions
12:53 AM 70.0 °F - 62.1 °F 76% 30.09 in 10.0 mi Calm Calm - N/A   Clear
1:53 AM 69.8 °F - 62.6 °F 78% 30.12 in 10.0 mi Calm Calm - N/A   Partly Cloudy
2:53 AM 69.1 °F - 62.1 °F 78% 30.07 in 10.0 mi Calm Calm - N/A   Clear
3:53 AM 69.1 °F - 62.1 °F 78% 30.06 in 10.0 mi Calm Calm - N/A   Clear
4:53 AM 69.1 °F - 62.1 °F 78% 30.06 in 10.0 mi Variable 3.5 mph - N/A   Overcast
5:53 AM 68.0 °F - 62.1 °F 81% 30.05 in 10.0 mi Calm Calm - N/A   Scattered Clouds
6:53 AM 68.0 °F - 62.1 °F 81% 30.06 in 10.0 mi Calm Calm - N/A   Mostly Cloudy
7:53 AM 69.1 °F - 62.1 °F 78% 30.07 in 10.0 mi Calm Calm - N/A   Overcast
8:53 AM 71.1 °F - 64.0 °F 78% 30.08 in 10.0 mi Calm Calm - N/A   Clear
9:53 AM 73.9 °F - 64.0 °F 71% 30.09 in 10.0 mi Calm Calm - N/A   Clear
10:53 AM 77.0 °F - 66.0 °F 69% 30.07 in 10.0 mi Variable 4.6 mph - N/A   Clear
11:53 AM 81.0 °F 83.0 °F 66.0 °F 60% 30.07 in 10.0 mi Variable 4.6 mph - N/A   Scattered Clouds
12:53 PM 84.0 °F 85.8 °F 64.9 °F 53% 30.06 in 10.0 mi Variable 3.5 mph - N/A   Scattered Clouds
1:05 PM 84.0 °F 85.8 °F 64.9 °F 53% 30.09 in 10.0 mi Variable 4.6 mph - N/A Thunderstorm Mostly Cloudy
1:21 PM 82.9 °F 84.6 °F 64.9 °F 54% 30.09 in 10.0 mi Variable 3.5 mph - N/A Thunderstorm Thunderstorm
1:36 PM 72.0 °F - 63.0 °F 73% 30.08 in 1.8 mi WSW 9.2 mph 21.9 mph 0.02 in Rain , Thunderstorm Thunderstorms and Rain
1:44 PM 70.0 °F - 63.0 °F 78% 30.08 in 2.5 mi WSW 3.5 mph 21.9 mph 0.05 in Rain , Thunderstorm Light Thunderstorms and Rain
1:51 PM 71.6 °F - 64.4 °F 78% 30.08 in 10.0 mi WSW 4.6 mph - 0.05 in Thunderstorm Scattered Clouds
1:53 PM 73.9 °F - 66.0 °F 76% 30.04 in 9.0 mi WSW 3.5 mph - 0.05 in Thunderstorm Scattered Clouds
2:35 PM 73.9 °F - 66.9 °F 79% 30.07 in 9.0 mi Variable 3.5 mph - N/A   Clear
2:53 PM 75.0 °F - 66.0 °F 73% 30.02 in 10.0 mi Variable 3.5 mph - N/A   Clear
3:53 PM 81.0 °F 83.0 °F 66.0 °F 60% 30.00 in 10.0 mi Calm Calm - N/A   Clear
4:53 PM 82.4 °F 84.6 °F 66.2 °F 58% 30.02 in 10.0 mi Variable 3.5 mph - N/A   Clear
5:53 PM 82.0 °F 84.5 °F 66.9 °F 60% 29.99 in 10.0 mi Calm Calm - N/A   Clear
6:53 PM 79.0 °F - 64.9 °F 62% 29.99 in 10.0 mi Calm Calm - N/A   Clear
7:40 PM 72.0 °F - 63.0 °F 73% 30.03 in 2.0 mi Variable 4.6 mph - 0.01 in Rain Heavy Rain
7:42 PM 71.1 °F - 64.0 °F 78% 30.03 in 1.5 mi WSW 4.6 mph - 0.02 in Rain Heavy Rain
7:53 PM 68.0 °F - 63.0 °F 84% 30.00 in 1.8 mi Calm Calm - 0.07 in Rain Light Rain
7:56 PM 66.9 °F - 63.0 °F 87% 30.04 in 3.0 mi Calm Calm - 0.00 in Rain Light Rain
8:53 PM 66.9 °F - 61.0 °F 81% 30.01 in 10.0 mi Calm Calm - 0.00 in   Clear
9:53 PM 69.1 °F - 59.0 °F 70% 30.01 in 10.0 mi SSE 3.5 mph - N/A   Clear
10:53 PM 69.1 °F - 59.0 °F 70% 30.01 in 10.0 mi Calm Calm - N/A   Clear
11:53 PM 68.0 °F - 60.1 °F 76% 30.01 in 10.0 mi Calm Calm - N/A   Clear